GFSCGP_sfc_temp_336.txt.gz
Temp
45 48 43 39 41 42 43 42 41 41 39 38 42 42 46 45 42 43 45 44 45 45 48 46 45 45 44 44 44 44 45 45 48 49 48 47 44 45 45 45 44 44 44 44
45 38 35 37 39 40 41 39 40 39 37 37 41 40 47 48 43 45 46 44 45 45 44 43 44 44 44 44 44 44 44 44 45 47 45 47 47 44 44 44 43 43 42 42
41 34 36 37 36 37 36 37 36 36 37 36 37 43 42 44 47 46 47 48 47 46 43 44 43 43 45 44 44 44 44 44 44 44 45 44 45 46 46 44 43 41 42 41
35 36 35 36 34 35 33 34 34 33 36 36 36 37 46 44 42 42 44 46 47 46 46 46 44 44 45 45 46 45 44 44 43 43 44 44 45 43 42 43 43 42 41 41
30 32 33 34 31 33 32 34 34 33 34 32 33 33 49 38 45 48 46 45 47 47 47 46 45 45 46 46 45 45 44 43 43 43 43 44 42 43 43 43 41 41 41 40
31 34 33 32 32 33 35 33 33 33 32 28 29 31 43 46 45 45 45 47 47 47 47 47 47 46 46 45 44 44 43 43 43 42 42 42 42 41 43 42 42 42 42 41
30 29 32 33 32 34 33 32 31 28 27 29 28 27 38 45 46 42 43 45 47 47 46 46 45 43 44 43 43 43 43 42 42 42 42 42 41 41 41 41 42 41 41 41
32 28 29 31 30 31 30 30 33 23 26 31 26 28 43 40 39 40 40 42 44 45 46 46 45 44 45 43 44 43 42 43 42 42 42 42 42 43 43 41 42 42 41 40
28 26 28 29 30 29 28 28 29 22 13 23 35 37 43 40 42 41 38 39 39 42 44 45 46 46 45 44 44 44 43 43 43 43 43 42 42 41 41 40 41 41 40 39
30 24 25 27 30 30 27 30 26 26 21 20 30 27 38 42 41 43 42 40 40 39 42 44 46 45 46 46 46 45 45 44 44 43 43 42 42 41 41 40 39 38 39 37
26 30 20 25 23 27 24 26 22 25 26 25 25 34 37 38 40 40 41 40 40 40 40 43 45 46 45 45 45 44 43 43 42 42 42 41 41 40 39 38 38 38 38 36
27 29 24 24 24 25 23 27 29 29 21 21 21 29 39 39 40 39 40 40 40 40 41 42 43 44 43 43 43 43 43 42 43 43 42 41 41 40 38 38 37 36 35 36
26 25 23 22 22 21 19 24 25 23 23 19 24 33 36 37 39 40 39 42 41 38 39 38 40 40 41 42 42 42 42 42 42 42 41 41 40 40 39 38 37 36 32 31
30 20 24 30 28 23 16 17 24 23 22 26 26 34 41 43 42 44 41 42 43 40 37 37 38 39 39 40 40 41 41 41 40 40 40 40 40 39 39 39 37 36 34 31
26 22 12 18 20 18 20 16 18 18 27 25 35 33 38 39 37 39 39 41 39 40 38 37 37 38 38 38 39 39 40 39 39 39 38 39 39 39 39 37 36 36 35 33
16 19 9 15 18 18 14 16 16 22 26 27 28 28 40 40 41 37 39 39 37 39 39 38 37 38 37 37 38 36 37 37 37 37 37 38 37 37 36 36 35 35 34 33
18 13 15 20 16 18 15 13 17 21 21 26 23 32 40 34 34 36 37 38 37 38 38 37 38 38 38 38 38 36 36 36 35 35 36 36 36 35 35 35 34 33 32 33
11 15 15 19 12 15 25 23 22 24 27 24 27 30 30 30 33 33 34 33 34 36 36 37 38 39 39 38 37 36 35 35 34 35 34 35 33 32 32 31 31 31 32 29
18 18 11 15 16 22 31 20 19 18 27 28 26 30 32 28 27 33 31 31 33 35 36 39 38 37 36 36 36 35 34 33 32 31 31 30 30 28 28 28 28 29 29 28
17 17 20 7 14 14 26 23 22 23 23 25 27 28 28 26 32 34 28 29 33 33 33 35 35 34 33 32 33 33 28 28 23 24 24 25 24 25 25 26 26 28 27 27
11 13 13 13 14 18 27 23 21 21 26 24 27 27 25 29 31 27 29 27 28 28 29 30 29 26 25 26 28 24 24 18 20 19 20 21 22 22 24 24 25 24 24 24
13 11 9 10 10 10 24 21 23 27 23 25 25 25 26 27 28 27 24 22 23 22 22 23 23 20 18 18 20 19 16 16 15 15 16 17 18 20 21 21 22 22 21 19
16 22 16 19 20 24 25 26 25 24 26 24 24 24 24 26 23 24 21 18 15 15 17 18 18 15 11 12 13 13 13 12 11 10 11 13 15 16 18 17 19 20 20 19
17 18 20 19 23 23 22 23 21 22 21 21 20 19 20 20 20 19 19 17 16 15 13 14 15 12 11 10 11 10 10 8 7 7 9 12 13 15 16 17 18 19 19 18
22 20 18 18 22 22 18 18 19 18 18 17 16 15 15 17 14 15 13 13 13 13 11 11 10 10 9 9 9 9 8 6 6 7 9 12 14 14 15 16 17 17 18 19
21 20 21 23 24 24 16 13 16 14 13 14 14 12 11 12 10 11 10 9 9 8 8 8 7 6 7 7 7 7 5 4 2 5 8 10 10 12 14 14 15 19 20 22

GFSCGP_sfc_temp_339.txt.gz
Temp
52 52 49 47 46 47 48 47 46 49 44 42 48 49 54 56 49 49 52 53 52 51 54 51 49 49 48 49 48 49 48 48 50 51 51 49 47 48 48 47 47 46 46 46
49 47 42 42 44 45 46 44 47 46 42 41 47 45 53 57 56 52 52 53 53 52 52 49 48 48 48 48 48 48 48 48 49 50 48 50 49 47 47 47 46 45 45 45
48 39 39 40 41 41 42 42 42 39 43 44 42 48 51 53 55 58 55 55 56 52 51 48 47 47 48 48 47 48 47 47 48 47 47 47 47 49 48 46 45 43 44 44
40 39 38 40 38 39 37 39 38 38 40 40 43 39 51 57 52 50 52 53 54 54 53 51 48 47 48 48 49 49 47 47 47 47 47 47 48 45 45 45 45 44 44 44
32 36 37 38 33 36 35 38 38 38 39 37 41 37 50 50 53 54 55 53 54 55 54 52 50 49 50 49 48 48 48 47 47 46 47 47 45 45 46 45 44 43 44 43
34 37 37 35 35 37 38 37 38 38 38 31 37 37 45 50 47 51 53 53 54 54 54 53 53 51 50 49 48 47 46 46 46 46 46 46 45 44 44 44 44 44 44 43
34 32 35 36 35 37 36 36 34 31 29 32 35 32 42 49 47 47 48 50 52 54 53 52 51 49 49 47 46 46 46 45 46 45 45 45 45 44 44 43 44 43 43 42
34 29 32 34 34 34 36 35 35 26 29 36 32 31 44 44 46 48 47 47 47 50 52 51 51 49 48 47 46 46 45 45 45 45 45 45 45 45 45 44 44 43 42 42
33 28 32 32 34 33 33 30 34 28 20 27 39 42 46 44 46 47 45 44 45 47 50 50 51 50 49 47 47 47 46 45 46 45 45 45 45 44 43 43 43 43 42 42
37 25 29 30 34 33 31 35 30 31 23 23 35 34 39 44 45 48 46 46 47 45 47 50 50 50 50 50 49 48 48 46 46 46 46 45 44 44 44 43 42 42 42 40
32 33 23 27 26 32 28 29 28 29 30 28 28 37 43 44 45 46 45 45 46 46 45 48 50 51 51 50 49 48 48 47 46 45 45 44 44 43 42 41 41 41 41 40
32 33 26 28 29 30 27 32 33 31 26 28 26 31 44 46 45 45 44 45 45 45 46 47 48 50 49 48 48 48 47 46 46 46 45 43 44 43 41 40 40 39 37 39
30 30 24 23 24 25 22 29 31 29 29 25 26 35 43 43 43 45 44 45 46 47 47 46 46 47 48 47 47 47 47 46 46 46 44 43 42 42 42 41 40 39 35 34
33 28 28 32 28 28 20 23 29 27 25 29 30 37 44 47 47 49 48 47 47 46 45 44 44 45 47 45 46 46 45 45 44 43 42 41 42 41 41 41 40 38 37 33
29 25 19 24 27 25 25 19 23 22 29 27 36 38 42 44 41 43 45 44 43 43 44 44 42 43 44 44 44 44 45 43 42 41 40 41 41 41 41 40 39 39 37 35
20 23 15 18 26 24 18 21 20 25 27 31 33 33 45 44 45 43 43 42 41 41 42 42 41 40 40 40 41 40 41 41 41 40 40 40 40 39 39 39 38 37 36 36
21 19 19 23 23 24 16 16 20 26 27 29 26 35 43 40 38 38 37 38 38 39 39 39 40 40 39 40 39 39 39 40 38 38 39 39 38 37 37 38 37 36 35 35
19 21 23 22 16 17 27 30 27 27 32 30 32 35 35 34 36 35 35 34 35 37 38 39 40 41 41 42 40 41 40 38 37 37 37 37 35 33 34 33 32 33 34 32
22 25 19 19 20 28 33 25 22 20 28 31 31 33 35 34 31 32 33 34 35 35 36 39 38 38 39 38 38 37 36 35 34 32 32 29 29 28 28 28 28 29 30 30
20 21 22 14 17 18 27 28 29 28 23 31 32 33 33 30 30 32 30 32 32 32 33 34 34 33 31 31 35 32 27 25 21 22 23 24 24 24 24 25 25 27 28 28
14 16 15 18 18 25 32 27 27 21 27 28 32 32 30 31 29 29 30 28 28 27 28 30 27 24 23 25 27 24 21 15 17 18 19 20 21 21 23 24 24 24 24 25
16 15 14 19 15 13 30 25 25 28 26 28 29 30 29 30 29 27 26 24 24 23 22 24 22 18 16 17 19 19 14 14 13 13 15 16 17 19 21 20 20 21 22 21
19 28 20 23 23 26 30 30 28 28 28 27 29 27 27 29 26 27 22 18 16 16 18 19 18 15 11 12 12 13 12 10 9 9 10 12 14 17 19 17 18 19 21 22
21 25 24 22 26 25 26 25 26 27 26 24 24 23 25 25 23 22 20 18 18 16 14 15 16 12 11 11 12 10 10 8 7 8 10 12 13 15 17 19 19 19 19 20
26 23 22 22 25 25 23 26 25 22 22 20 19 19 20 20 18 18 16 15 15 15 13 12 12 11 10 10 9 9 7 6 5 7 9 11 13 13 14 16 17 18 19 19
25 24 23 25 29 28 22 20 21 19 18 18 16 14 14 15 14 14 12 11 11 10 9 9 8 7 7 7 7 7 5 4 2 4 7 8 9 10 12 13 14 19 21 23

GFSCGP_sfc_temp_342.txt.gz
Temp
45 41 36 40 41 41 41 37 35 39 39 34 38 41 45 45 42 41 43 43 44 44 46 45 44 43 42 42 42 42 42 43 42 41 40 39 38 39 38 39 40 40 40 40
39 35 38 41 41 39 38 34 34 36 38 34 37 36 43 47 45 43 43 43 44 44 43 43 41 41 40 40 41 42 43 42 42 40 39 39 38 38 38 39 39 40 39 39
36 35 39 38 34 36 34 31 31 29 34 36 32 32 38 41 43 46 46 46 46 45 43 39 39 38 38 38 39 41 41 42 41 41 40 39 39 38 37 37 36 38 39 38
33 35 34 31 33 32 31 31 32 32 30 26 30 23 37 39 41 42 43 43 44 45 46 43 40 38 38 38 39 40 41 40 41 41 40 39 36 34 35 36 36 36 38 38
27 28 30 31 29 31 29 32 30 29 27 26 25 24 33 38 38 37 38 42 43 45 45 43 42 42 41 40 38 38 39 39 40 39 40 37 35 35 36 36 35 36 36 37
28 33 31 28 31 31 33 29 28 27 28 15 24 25 27 33 34 37 41 42 44 41 44 44 44 43 40 39 38 37 38 38 39 38 38 37 36 35 33 34 33 33 34 34
29 27 29 31 29 30 29 26 20 17 15 18 25 22 26 35 36 35 37 39 40 42 42 42 41 39 40 37 36 37 37 37 37 37 37 38 37 36 35 34 33 33 32 32
24 21 27 30 27 27 28 25 20 12 17 22 26 22 28 36 36 37 38 37 38 39 42 41 42 40 39 37 36 37 36 36 37 37 36 37 37 35 35 35 34 33 32 32
23 23 27 29 29 28 25 19 24 15 13 14 25 28 31 34 34 36 34 36 34 35 39 42 42 40 39 38 37 37 36 36 37 36 36 36 36 35 34 35 35 33 34 37
29 16 27 27 28 27 24 27 20 18 7 7 24 22 23 31 35 37 35 34 35 34 35 40 41 41 41 40 39 38 38 37 37 36 36 37 35 35 35 34 33 33 33 34
24 25 21 25 20 24 21 20 21 22 19 14 14 20 28 33 37 36 35 35 35 36 37 38 40 41 41 40 40 38 38 37 36 36 36 35 35 34 34 32 32 32 33 32
27 24 15 19 23 25 23 23 24 17 14 16 17 16 36 37 37 37 35 37 35 34 37 37 38 39 39 39 39 39 38 37 36 37 36 35 35 34 32 32 32 32 31 32
23 21 11 18 19 20 14 25 28 24 22 14 11 19 37 34 33 36 36 36 36 35 34 38 37 37 38 38 38 38 37 36 37 36 35 34 34 33 32 32 32 32 27 27
32 19 19 20 22 18 11 15 25 16 10 18 24 26 30 33 33 35 34 34 32 34 36 36 35 35 37 37 37 37 37 36 35 35 34 33 33 33 33 32 32 31 29 26
24 15 14 16 22 20 15 11 19 15 22 18 29 30 32 34 29 32 32 32 32 33 34 34 34 34 35 35 35 35 36 35 35 33 32 31 32 33 33 32 32 31 30 29
16 13 9 12 23 23 12 15 16 23 24 24 27 27 36 29 32 32 33 32 32 32 32 32 33 32 34 34 34 34 33 32 32 31 31 32 32 32 31 31 31 31 30 29
15 11 10 9 22 20 12 15 18 20 16 24 20 30 32 27 31 28 28 29 29 30 31 31 31 33 33 31 33 31 31 30 30 30 31 31 31 31 30 31 30 30 29 29
15 13 13 8 7 5 21 23 19 24 25 26 23 25 24 25 26 27 26 24 28 29 29 29 29 30 30 30 31 31 31 30 30 30 29 28 28 27 28 26 26 25 26 22
18 16 9 7 4 19 23 19 15 15 19 26 27 30 24 21 21 20 26 28 26 25 27 27 26 25 25 26 28 27 24 23 23 21 23 22 23 22 22 22 19 18 19 18
20 15 13 4 4 6 16 20 22 20 15 18 27 27 25 21 16 14 20 25 24 24 24 23 22 21 21 23 25 21 17 16 14 16 17 19 18 20 17 18 19 18 15 19
5 6 8 8 5 15 20 22 21 12 17 20 23 23 22 19 16 19 22 21 22 21 23 21 19 16 16 20 22 17 13 9 12 12 14 16 16 17 18 18 16 15 15 17
10 10 5 6 3 8 23 22 21 20 17 21 21 21 22 21 21 20 19 18 19 17 18 20 16 13 12 13 16 12 9 9 8 9 10 10 11 15 18 15 16 14 14 16
13 18 14 18 17 17 26 23 22 20 18 21 21 22 24 23 21 20 16 14 11 13 16 17 14 10 4 7 9 9 7 6 5 4 4 5 9 14 16 14 14 14 15 17
14 17 15 18 15 17 21 22 21 22 21 22 22 21 23 20 21 18 17 17 15 14 11 13 13 9 6 7 8 7 5 3 -0 1 4 7 9 10 11 13 14 14 13 14
18 19 13 16 21 23 22 23 22 21 20 19 19 20 19 19 19 17 15 14 13 12 11 10 9 8 6 6 4 3 3 2 2 2 3 4 6 5 8 10 11 13 13 17
18 18 18 19 24 24 21 22 23 19 17 16 15 13 15 16 14 14 10 10 9 8 7 6 6 4 3 3 3 1 1 1 -2 0 2 3 4 4 7 7 7 14 17 19

GFSCGP_sfc_temp_345.txt.gz
Temp
41 35 30 30 33 36 35 34 33 30 35 31 31 33 37 40 36 34 37 37 37 39 41 41 41 40 40 39 40 40 40 41 40 38 37 36 34 35 35 37 38 38 38 39
35 31 32 37 37 37 35 31 28 31 35 31 30 32 35 36 36 37 38 38 38 38 37 39 38 38 37 37 38 39 40 40 39 38 37 37 35 36 36 36 37 38 37 37
31 30 36 35 33 34 28 29 27 28 30 31 27 31 35 39 39 38 38 38 38 38 36 35 35 34 34 35 35 38 38 38 38 38 38 37 36 35 34 34 34 36 37 37
29 33 33 31 31 30 30 29 31 31 26 25 27 23 29 33 35 39 39 38 39 38 37 37 35 33 34 34 34 37 38 37 38 38 37 35 32 31 32 33 33 34 36 36
27 27 29 30 29 29 29 30 29 28 24 23 22 23 29 33 32 32 34 39 38 40 37 36 37 38 36 35 34 34 35 36 37 37 36 33 32 32 33 33 33 34 34 35
27 31 28 27 30 30 32 29 28 25 23 12 21 23 25 30 35 35 36 34 36 36 38 37 38 38 36 34 34 33 34 35 36 36 36 34 33 32 31 31 31 31 31 31
27 26 27 30 27 30 28 25 16 14 10 15 23 21 25 32 34 35 34 32 32 34 35 35 35 36 36 33 33 34 34 33 34 34 34 34 34 33 33 32 30 30 30 29
21 20 26 28 26 25 27 23 17 10 14 20 25 20 27 34 34 34 36 35 35 33 38 36 37 37 36 35 34 35 33 33 33 33 33 34 34 32 32 32 31 31 30 30
17 21 26 28 27 25 25 20 25 12 10 11 22 25 31 32 33 32 33 33 30 31 36 37 35 36 36 36 36 36 34 33 33 33 33 33 33 32 32 32 32 31 31 34
28 14 26 26 26 26 24 26 20 16 5 5 20 17 23 29 32 32 32 32 32 32 33 37 36 36 37 38 38 36 36 35 33 33 33 34 33 33 32 31 31 31 31 32
19 20 19 24 17 22 19 19 19 20 18 12 10 18 23 31 32 32 32 33 33 34 35 36 36 36 37 36 35 35 34 33 32 33 32 32 32 32 32 31 30 30 31 31
25 18 10 17 21 23 20 21 22 16 15 13 14 17 31 32 34 33 32 34 34 35 35 34 35 35 35 34 34 35 34 34 34 33 32 32 32 32 30 30 30 30 30 30
24 15 6 16 17 20 13 24 27 22 19 11 12 19 34 32 31 32 32 32 33 34 33 35 34 34 33 33 33 34 35 35 34 33 32 31 31 30 30 29 30 30 27 27
31 13 17 20 20 16 10 13 24 17 9 17 21 24 29 30 30 31 32 33 33 33 34 33 32 33 33 33 32 33 33 33 33 32 31 30 30 30 30 30 30 29 28 25
23 16 12 13 20 17 14 11 19 17 21 20 29 30 30 30 28 32 32 32 33 34 32 30 31 31 31 32 31 32 33 32 32 31 30 30 30 31 30 30 29 29 29 27
14 10 8 11 22 21 14 15 15 24 26 24 26 26 31 22 30 29 30 30 30 29 29 28 30 31 32 32 31 32 31 30 31 30 30 30 30 30 30 30 30 29 29 28
15 10 10 10 21 18 14 14 17 20 14 24 20 29 30 25 29 27 26 28 28 28 28 29 28 28 30 30 31 29 28 27 29 29 29 30 29 29 29 29 29 29 27 27
11 11 9 6 8 9 23 21 20 26 25 25 21 22 24 25 24 24 24 26 27 28 26 24 23 22 23 24 25 25 25 25 24 23 23 24 25 24 25 24 23 22 24 20
16 13 7 11 1 17 21 18 17 16 21 27 26 31 20 19 18 17 24 24 23 22 22 20 19 19 21 21 22 21 19 19 19 18 19 19 20 20 20 20 17 15 15 13
19 14 14 5 9 8 15 19 20 20 21 20 28 29 23 21 18 15 17 22 21 20 20 19 18 19 19 20 21 18 13 13 10 13 14 16 16 17 15 16 16 16 11 14
6 5 11 7 6 11 18 21 20 16 21 18 22 23 23 24 18 17 19 18 19 20 18 17 15 14 14 19 18 12 10 6 9 10 12 13 13 14 16 16 14 12 10 11
9 9 5 4 4 11 22 23 23 21 15 19 18 18 19 18 18 17 16 16 16 15 16 15 12 11 10 11 13 8 6 7 6 7 8 8 9 14 15 13 13 11 10 11
15 17 12 18 17 15 24 23 20 16 17 19 19 21 22 19 17 16 13 12 10 12 14 14 10 7 3 5 8 5 4 4 4 2 2 3 7 11 11 11 9 11 13 11
12 12 13 18 14 17 21 20 20 20 20 22 21 21 21 16 17 14 13 13 12 11 10 12 9 5 3 4 4 3 3 1 -3 -2 1 4 3 5 7 9 11 10 7 7
18 19 13 15 19 23 22 23 21 19 19 18 19 19 18 19 17 16 14 13 11 10 9 9 8 5 3 3 1 -0 1 -1 -1 -1 -1 -1 2 2 5 8 8 10 11 13
17 15 20 20 24 23 21 21 21 19 17 16 15 14 16 16 14 13 10 10 9 7 7 5 4 2 1 1 0 -1 -1 -2 -4 -1 0 1 1 1 4 3 3 10 13 15